Probability
0 0 0 0 0 0 0 0 0 0 0 0 0 0 0 0 0 0 0 0 0 0 0 0 0 0 0 0 0 0 1 3 5 5 4 1 0 0 0 0 0 0 0 0
0 0 0 0 0 0 0 0 0 0 0 0 0 0 0 0 0 0 0 0 0 0 0 0 0 0 0 0 0 0 0 1 2 4 5 3 1 0 0 0 0 0 0 0
0 0 0 0 0 0 0 0 0 0 0 0 0 0 0 0 0 0 0 0 0 0 0 0 0 0 0 0 0 0 0 0 1 3 5 4 2 1 0 0 0 0 0 0
0 0 0 0 0 0 0 0 0 0 0 0 0 0 0 0 0 0 0 0 0 0 0 0 0 0 0 0 0 0 0 0 2 3 4 4 3 2 1 0 0 0 0 0
0 0 0 0 0 0 0 0 0 0 0 0 0 0 0 0 0 0 0 0 0 0 0 0 0 0 0 0 0 0 0 0 1 2 2 2 2 2 1 0 0 0 0 0
0 0 0 0 0 0 0 0 0 0 0 0 0 0 0 0 0 0 0 0 0 0 0 0 0 0 0 0 0 0 0 0 0 1 1 0 0 1 1 0 0 0 0 0
0 0 0 0 0 0 0 0 0 0 0 0 0 0 0 0 0 0 0 0 0 0 0 0 0 0 0 0 0 0 0 0 0 1 1 1 1 2 2 1 0 0 0 0
0 0 0 0 0 0 0 0 0 0 0 0 0 0 0 0 0 0 0 0 0 0 0 0 0 0 0 0 0 0 0 0 0 1 2 2 2 2 2 1 0 0 0 0
0 0 0 0 0 0 0 0 0 0 0 0 0 0 0 0 0 0 0 0 0 0 0 0 0 0 0 0 0 0 0 0 0 1 1 1 1 1 2 1 0 0 0 0
0 0 0 0 0 0 0 0 0 0 0 0 0 0 0 0 0 0 0 0 0 0 0 0 0 0 0 0 0 0 0 0 0 0 0 0 0 0 1 1 0 0 0 0
0 0 0 0 0 0 0 0 0 0 0 0 0 0 0 0 0 0 0 0 0 0 0 0 0 0 0 0 0 0 0 0 0 0 0 0 0 0 0 0 0 0 0 0
0 0 0 0 0 0 0 0 0 0 0 0 0 0 0 0 0 0 0 0 0 0 0 0 0 0 0 0 0 0 0 0 0 0 0 0 0 0 0 0 0 0 0 0
0 0 0 0 0 0 0 0 0 0 0 0 0 0 0 0 0 0 0 0 0 0 0 0 0 0 0 0 0 0 0 0 0 0 0 0 0 0 0 0 0 0 0 0
0 0 0 0 0 0 0 0 0 0 0 0 0 0 0 0 0 0 0 0 0 0 0 0 0 0 0 0 0 0 0 0 0 0 0 0 0 0 0 0 0 0 0 0
0 0 0 0 0 0 0 0 0 0 0 0 0 0 0 0 0 0 0 0 0 0 0 0 0 0 0 0 0 0 0 0 0 0 0 0 0 0 0 0 0 0 0 0
0 0 0 0 0 0 0 0 0 0 0 0 0 0 0 0 0 0 0 0 0 0 0 0 0 0 0 0 0 0 0 0 0 0 0 0 0 0 0 0 0 0 0 0
0 0 0 0 0 0 0 0 0 0 0 0 0 0 0 0 0 0 0 0 0 0 0 0 0 0 0 0 0 0 0 0 0 0 0 0 0 0 0 0 0 0 0 0
0 0 0 0 0 0 0 0 0 0 0 0 0 0 0 0 0 0 0 0 0 0 0 0 0 0 0 0 0 0 0 0 0 0 0 0 0 0 0 0 0 0 0 0
0 0 0 0 0 0 0 0 0 0 0 0 0 0 0 0 0 0 0 0 0 0 0 0 0 0 0 0 0 0 0 0 0 0 0 0 0 0 0 0 0 0 0 0
0 0 0 0 0 0 0 0 0 0 0 0 0 0 0 0 0 0 0 0 0 0 0 0 0 0 0 0 0 0 0 0 0 0 0 0 0 0 0 0 0 0 0 0
0 0 0 0 0 0 0 0 0 0 0 0 0 0 0 0 0 0 0 0 0 0 0 0 0 0 0 0 0 0 0 0 0 0 0 0 0 0 0 0 0 0 0 0
0 0 0 0 0 0 0 0 0 0 0 0 0 0 0 0 0 0 0 0 0 0 0 0 0 0 0 0 0 0 0 0 0 0 0 0 0 0 0 0 0 0 0 0
0 0 0 0 0 0 0 0 0 0 0 0 0 0 0 0 0 0 0 0 0 0 0 0 0 0 0 0 0 0 0 0 0 0 0 0 0 0 0 0 0 0 0 0
0 0 0 0 0 0 0 0 0 0 0 0 0 0 0 0 0 0 0 0 0 0 0 0 0 0 0 0 0 0 0 0 0 0 0 0 0 0 0 0 0 0 0 0
0 0 0 0 0 0 0 0 0 0 0 0 0 0 0 0 0 0 0 0 0 0 0 0 0 0 0 0 0 0 0 0 0 0 0 0 0 0 0 0 0 0 0 0
0 0 0 0 0 0 0 0 0 0 0 0 0 0 0 0 0 0 0 0 0 0 0 0 0 0 0 0 0 0 0 0 0 0 0 0 0 0 0 0 0 0 0 0
Wind_Speed
1 2 5 6 5 2 2 3 4 4 3 2 6 9 9 7 5 6 6 6 6 8 7 5 4 3 3 4 5 7 8 8 7 6 7 7 7 6 6 6 7 7 7 7
1 5 6 2 2 2 3 4 4 4 3 3 6 10 8 6 6 6 6 6 6 6 6 5 4 3 3 4 4 6 7 7 8 7 6 5 4 4 5 4 6 7 8 8
6 3 2 4 3 5 6 6 5 4 4 3 5 9 6 5 4 4 5 5 5 6 7 6 5 4 3 3 4 5 6 6 7 7 4 3 2 2 3 5 6 7 8 8
5 3 1 3 4 5 7 5 5 4 2 4 1 7 7 5 5 5 6 5 6 6 5 5 5 4 4 4 3 3 3 3 4 5 6 7 7 7 7 5 5 5 6 7
4 2 2 4 5 5 4 2 4 4 4 4 3 5 9 3 5 7 6 5 5 5 5 5 5 5 4 3 2 2 1 1 1 3 5 7 6 5 3 3 4 4 5 6
4 2 3 4 2 4 2 2 2 0 1 6 7 6 9 5 7 6 4 4 5 5 5 5 5 3 2 2 1 1 0 0 0 2 3 5 6 5 4 4 5 4 3 4
3 2 2 1 1 1 2 3 0 1 3 7 3 6 10 6 6 5 6 6 5 4 4 4 4 3 3 2 2 1 0 0 0 1 2 3 5 5 5 5 5 4 3 4
1 4 3 3 5 5 5 6 5 5 5 3 2 8 8 4 4 4 5 5 5 5 4 4 4 3 3 2 2 1 0 1 0 0 1 1 2 3 3 3 3 4 4 4
2 5 3 3 2 6 5 5 3 2 0 2 5 7 9 3 3 4 4 5 5 6 5 4 4 3 3 2 2 1 1 1 1 1 0 0 0 1 2 2 2 2 2 2
2 4 4 3 1 1 4 4 3 3 3 4 5 5 5 4 4 4 5 5 5 5 5 5 4 4 3 2 2 1 1 1 1 1 1 0 1 1 1 1 1 1 1 1
1 2 4 2 3 4 2 3 3 3 3 4 4 7 5 5 4 4 5 4 4 4 5 4 4 4 4 4 3 2 2 1 2 1 1 1 1 0 0 0 1 1 1 1
1 2 3 5 4 2 3 4 4 4 4 3 3 8 3 2 3 3 4 4 4 4 4 4 3 4 4 4 4 4 3 2 2 1 1 1 1 1 1 1 1 0 1 1
1 1 1 5 3 2 1 2 3 2 2 4 5 8 3 3 4 4 4 5 5 5 5 4 4 3 3 3 4 4 3 3 2 2 1 1 1 1 1 1 1 0 0 1
2 3 4 6 5 2 5 5 5 4 5 6 9 10 8 6 6 5 5 4 4 4 4 4 4 3 3 4 3 3 3 3 2 2 1 1 2 1 1 1 1 0 0 1
1 3 4 6 6 4 7 9 8 10 10 9 10 10 11 7 6 6 5 5 4 4 4 4 4 4 3 4 4 4 3 3 2 2 2 2 2 2 1 1 1 1 0 1
1 1 1 5 5 6 9 11 11 12 11 12 12 14 9 7 4 5 5 5 4 5 5 4 4 4 4 4 4 4 4 3 2 2 2 2 2 2 2 1 1 1 1 0
1 2 1 5 4 3 9 11 10 8 7 8 13 12 4 5 5 5 5 4 4 5 5 5 4 4 4 3 3 4 3 3 2 2 3 2 2 2 2 2 1 1 1 0
4 3 2 2 1 7 10 3 6 7 8 8 9 7 5 7 6 5 4 4 5 5 5 4 4 4 4 3 3 3 3 2 2 3 3 3 2 3 2 2 2 1 1 1
7 5 3 2 3 9 10 5 5 6 7 7 9 8 5 3 3 5 4 3 5 5 4 4 4 4 3 3 3 3 3 3 3 3 4 3 3 3 2 2 2 2 1 2
5 5 4 3 4 8 9 3 2 2 6 5 4 5 4 1 3 6 4 3 3 4 4 4 4 3 3 4 3 2 3 3 4 4 4 4 3 3 3 3 3 2 2 2
4 4 6 6 6 10 9 4 2 4 7 2 2 2 2 4 6 5 3 3 3 3 4 4 3 3 4 4 3 3 3 4 5 4 4 3 3 3 3 2 2 1 1 1
8 6 7 6 7 12 5 4 6 7 3 2 2 2 3 5 5 4 4 4 4 4 4 4 3 4 4 4 3 3 4 5 4 4 4 4 3 3 2 1 1 1 1 1
9 10 8 10 11 6 4 7 5 2 3 4 4 4 3 4 5 4 4 4 4 4 4 4 3 4 4 4 3 4 5 5 4 4 4 4 3 3 2 1 1 1 1 1
6 4 5 7 10 8 7 6 5 5 6 5 5 4 3 5 5 5 5 4 4 4 4 3 3 4 5 4 4 4 5 4 3 3 4 3 3 3 2 1 1 1 1 2
8 5 5 9 9 6 7 8 8 7 6 5 5 4 4 4 5 5 5 5 4 4 3 3 3 4 5 5 5 4 4 3 3 3 3 3 2 2 2 1 1 2 2 2
8 9 9 10 8 7 7 5 5 6 6 6 5 5 4 4 5 5 5 4 4 4 4 3 4 4 5 5 5 5 4 2 2 3 3 2 2 2 2 2 2 2 2 2
Wind_Direction
79 137 211 212 207 228 202 210 250 263 292 259 256 269 276 278 276 273 273 271 272 270 273 283 276 267 258 241 226 219 213 208 193 192 197 201 210 209 208 209 206 201 200 198
84 241 240 206 201 222 236 249 267 289 312 285 282 278 271 261 253 245 252 264 269 282 304 306 301 293 259 250 242 231 221 213 202 200 196 195 193 201 205 202 204 203 201 198
204 245 199 178 194 211 228 226 242 267 320 312 312 295 275 270 260 270 259 256 263 264 272 285 294 285 284 269 250 239 231 220 210 201 178 156 151 155 186 201 210 210 205 201
232 251 207 195 211 200 240 222 225 247 281 287 309 286 281 273 289 280 272 274 273 274 274 279 283 286 272 258 256 247 238 224 210 192 189 188 196 207 210 205 207 202 200 201
237 199 186 222 227 194 226 203 206 226 227 264 250 257 280 281 271 271 268 270 276 278 278 278 274 270 272 264 248 239 227 220 210 197 195 201 211 217 206 191 194 198 199 200
251 232 210 219 227 189 180 61 34 46 193 247 224 219 275 232 229 256 275 279 284 294 298 292 292 299 313 332 332 345 85 310 232 198 202 201 209 208 196 197 202 205 205 204
295 272 253 169 117 151 148 130 64 278 228 246 206 219 253 242 229 236 260 277 288 299 301 307 313 319 322 331 328 335 48 312 322 213 213 212 211 205 208 208 206 203 207 213
237 271 232 201 185 187 197 174 180 205 226 272 235 235 255 260 269 274 279 294 314 319 320 314 308 304 306 312 319 326 292 278 317 244 245 237 213 205 215 218 212 209 212 215
211 268 286 242 215 165 171 202 191 162 178 254 256 276 296 288 318 327 319 327 324 322 325 323 329 333 328 325 311 287 284 322 336 286 272 276 257 213 210 209 205 217 217 205
198 267 292 301 17 239 178 153 142 175 190 240 268 254 254 289 293 307 322 324 320 329 338 342 344 341 337 334 325 349 9 337 334 344 325 337 270 256 232 179 197 203 205 194
178 235 303 321 201 200 153 164 174 178 188 193 257 264 233 231 258 278 293 308 316 324 329 336 341 344 348 353 359 5 1 11 8 350 334 350 353 354 57 178 215 206 194 182
198 187 260 262 273 261 198 193 173 185 227 218 239 266 271 239 278 290 305 322 328 331 334 335 340 351 358 357 356 358 355 355 344 331 340 348 6 31 34 333 296 215 189 195
139 141 337 338 336 352 252 220 203 201 195 206 219 261 305 338 328 325 321 325 329 333 339 341 344 347 346 344 346 347 348 343 344 352 352 351 358 20 328 307 319 301 195 182
174 189 197 217 240 247 271 261 231 210 225 234 232 255 285 308 315 319 316 319 322 323 330 334 332 332 336 334 332 330 331 338 346 352 348 328 318 305 291 301 304 290 234 211
131 220 240 257 270 262 262 263 249 231 227 232 248 253 268 280 289 295 301 312 321 321 325 322 323 324 331 334 332 331 332 338 338 338 333 317 319 323 326 329 324 322 269 243
128 215 263 278 271 272 270 259 247 244 238 240 257 265 260 261 268 288 292 295 298 300 304 307 311 318 318 319 319 324 327 328 330 323 312 319 325 324 317 314 320 323 317 334
208 171 197 267 295 322 267 241 224 222 221 217 239 249 256 277 278 278 280 279 279 286 292 297 301 302 305 306 308 311 312 321 324 314 317 323 319 308 304 307 309 299 297 320
198 192 204 258 23 241 245 239 210 223 243 234 246 258 257 256 261 270 269 267 279 282 288 293 297 303 305 310 317 315 320 321 316 314 317 321 315 303 307 305 293 299 304 271
199 188 196 195 241 272 286 264 202 207 262 242 245 261 270 280 304 297 282 266 269 280 285 289 292 298 312 321 318 317 320 323 325 319 315 312 305 297 295 287 284 286 286 278
192 184 178 187 215 245 255 265 218 153 273 266 235 255 269 300 293 284 300 298 303 310 312 308 311 321 326 324 323 315 306 315 311 310 307 304 297 287 282 279 282 285 272 269
167 190 204 207 232 260 258 259 150 187 247 271 219 242 240 224 240 270 307 320 314 318 319 322 327 330 324 324 322 307 308 303 303 310 309 307 301 287 277 281 282 283 281 283
185 185 199 185 214 251 236 164 194 225 254 269 273 260 249 256 272 285 298 308 318 324 325 326 326 322 329 334 327 314 309 310 318 318 314 310 306 297 287 274 282 279 256 264
210 199 193 197 217 238 198 206 229 241 256 264 261 266 257 267 276 285 294 300 306 310 312 317 316 316 328 336 330 307 307 317 319 316 306 305 312 311 304 278 264 263 242 241
246 208 204 239 251 251 252 254 261 253 250 259 262 264 256 266 276 284 288 294 297 301 304 311 318 314 315 323 322 303 305 313 312 307 306 310 312 314 318 308 280 252 238 235
219 191 214 246 261 273 259 245 246 251 253 259 266 262 257 257 272 275 280 284 289 297 304 308 302 298 301 312 314 311 312 318 313 303 300 302 298 293 299 294 268 255 247 235
200 194 202 234 231 225 249 243 236 244 256 256 258 271 275 259 262 270 273 281 292 299 306 308 303 298 300 305 305 307 307 299 288 290 292 290 289 288 283 286 305 303 279 295